Terminal Aerodrome Forecast
Issued by NWS Greer, SC

Home | Current Version | Previous Version | Text Only | Print | Product List | Glossary On
Versions: 1 2 3 4 5 6 7 8 9 10 11 12 13 14 15 16 17 18 19 20 21 22 23 24 25
000
FTUS42 KGSP 311121
TAFCLT
TAF
KCLT 311121Z 3112/0112 02004KT P6SM SCT250
     FM311500 01004KT P6SM SCT060 BKN110
     FM010200 35003KT P6SM -RA OVC060
     FM010500 31008KT P6SM -RA OVC045
     FM010800 32009KT 6SM -RA OVC028=

USA.gov is the U.S. government's official web portal to all federal, state and local government web resources and services.